Volver al catálogo

SL-14 DEB

ActivoPO
NORAD 39976·DEBRIS·🇷🇺 Russia

Lanzado Aug 18, 1987 desde Plesetsk Cosmodrome

Loading…

Próximos Pases (próximas 24 horas)

TLE

EnvejeciendoSource: Space-Track

Época: Sep 9, 2026, 06:28 UTC

1 39976U 87068DC  26252.26990587  .00000792  00000-0  48931-3 0  9992
2 39976  82.5437  89.3969 0010396  95.3732 264.8626 14.04232316143993

Sigue SL-14 DEB en tiempo real con AllMySat

Download on the App Store